| time (UTC) | temp F | wind direction | speed MPH | gust MPH | rain 1hr in | rain 24hr in | rain mn in | humidity % | barometer mb |
| 20260505101821 | 46 | 61 | 2.0 | 2.0 | 0.00 | 0.00 | 0.00 | 88 | 1016.8 |
| 20260505101316 | 47 | 103 | 2.0 | 4.0 | 0.00 | 0.00 | 0.00 | 87 | 1016.7 |
| 20260505100812 | 48 | 110 | 3.0 | 5.0 | 0.00 | 0.00 | 0.00 | 86 | 1016.6 |
| 20260505100309 | 47 | 116 | 3.0 | 4.0 | 0.00 | 0.00 | 0.00 | 86 | 1016.5 |
| 20260505095805 | 47 | 35 | 2.0 | 3.0 | 0.00 | 0.00 | 0.00 | 85 | 1016.5 |
| 20260505095304 | 47 | 106 | 4.0 | 5.0 | 0.00 | 0.00 | 0.00 | 86 | 1016.6 |
| 20260505094758 | 47 | 125 | 4.0 | 5.0 | 0.00 | 0.00 | 0.00 | 84 | 1016.5 |
| 20260505094255 | 50 | 119 | 3.0 | 5.0 | 0.00 | 0.00 | 0.00 | 81 | 1016.4 |
| 20260505093751 | 51 | 111 | 4.0 | 5.0 | 0.00 | 0.00 | 0.00 | 78 | 1016.5 |
| 20260505093249 | 51 | 97 | 3.0 | 5.0 | 0.00 | 0.00 | 0.00 | 75 | 1016.5 |
| 20260505092745 | 51 | 103 | 3.0 | 4.0 | 0.00 | 0.00 | 0.00 | 75 | 1016.5 |
| 20260505092244 | 50 | 73 | 4.0 | 6.0 | 0.00 | 0.00 | 0.00 | 79 | 1016.4 |
| 20260505091741 | 49 | 126 | 6.0 | 7.0 | 0.00 | 0.00 | 0.00 | 81 | 1016.5 |
| 20260505091239 | 50 | 119 | 6.0 | 6.0 | 0.00 | 0.00 | 0.00 | 80 | 1016.4 |
| 20260505090736 | 52 | 119 | 4.0 | 5.0 | 0.00 | 0.00 | 0.00 | 73 | 1016.1 |
| 20260505090234 | 51 | 107 | 5.0 | 6.0 | 0.00 | 0.00 | 0.00 | 75 | 1016.4 |
| 20260505085731 | 53 | 105 | 5.0 | 5.0 | 0.00 | 0.00 | 0.00 | 71 | 1016.4 |
| 20260505085230 | 52 | 105 | 4.0 | 5.0 | 0.00 | 0.00 | 0.00 | 72 | 1016.2 |
| 20260505084727 | 52 | 103 | 5.0 | 6.0 | 0.00 | 0.00 | 0.00 | 73 | 1016.1 |
| 20260505084226 | 53 | 111 | 4.0 | 6.0 | 0.00 | 0.00 | 0.00 | 72 | 1016.1 |
| 20260505083722 | 52 | 84 | 3.0 | 6.0 | 0.00 | 0.00 | 0.00 | 71 | 1016.1 |
| 20260505083219 | 53 | 107 | 5.0 | 7.0 | 0.00 | 0.00 | 0.00 | 72 | 1016.4 |
| 20260505082715 | 52 | 100 | 3.0 | 5.0 | 0.00 | 0.00 | 0.00 | 73 | 1016.0 |
| 20260505082213 | 53 | 114 | 5.0 | 5.0 | 0.00 | 0.00 | 0.00 | 69 | 1016.0 |
| 20260505081708 | 53 | 111 | 5.0 | 5.0 | 0.00 | 0.00 | 0.00 | 69 | 1015.8 |
| 20260505081206 | 50 | 106 | 5.0 | 5.0 | 0.00 | 0.00 | 0.00 | 78 | 1016.0 |
| 20260505080703 | 51 | 111 | 6.0 | 7.0 | 0.00 | 0.00 | 0.00 | 76 | 1016.0 |
| 20260505080158 | 51 | 110 | 6.0 | 6.0 | 0.00 | 0.00 | 0.00 | 76 | 1015.8 |
| 20260505075654 | 53 | 104 | 5.0 | 6.0 | 0.00 | 0.00 | 0.00 | 71 | 1015.8 |
| 20260505075151 | 52 | 109 | 5.0 | 6.0 | 0.00 | 0.00 | 0.00 | 72 | 1015.7 |
| 20260505074648 | 52 | 107 | 5.0 | 7.0 | 0.00 | 0.00 | 0.00 | 73 | 1015.4 |
| 20260505074145 | 51 | 119 | 6.0 | 7.0 | 0.00 | 0.00 | 0.00 | 76 | 1015.5 |
| 20260505073643 | 52 | 103 | 5.0 | 7.0 | 0.00 | 0.00 | 0.00 | 75 | 1015.5 |
| 20260505073141 | 53 | 108 | 6.0 | 7.0 | 0.00 | 0.00 | 0.00 | 72 | 1015.3 |
| 20260505072636 | 53 | 111 | 5.0 | 7.0 | 0.00 | 0.00 | 0.00 | 70 | 1015.3 |
| 20260505072133 | 55 | 113 | 5.0 | 6.0 | 0.00 | 0.00 | 0.00 | 65 | 1015.7 |
| 20260505071628 | 55 | 112 | 5.0 | 6.0 | 0.00 | 0.00 | 0.00 | 65 | 1015.4 |
| 20260505071126 | 54 | 103 | 5.0 | 6.0 | 0.00 | 0.00 | 0.00 | 69 | 1015.6 |
| 20260505070624 | 54 | 104 | 5.0 | 6.0 | 0.00 | 0.00 | 0.00 | 71 | 1015.7 |
| 20260505070120 | 53 | 98 | 5.0 | 6.0 | 0.00 | 0.00 | 0.00 | 68 | 1015.6 |
| 20260505065616 | 54 | 111 | 6.0 | 7.0 | 0.00 | 0.00 | 0.00 | 70 | 1015.7 |
| 20260505065112 | 55 | 105 | 5.0 | 6.0 | 0.00 | 0.00 | 0.00 | 66 | 1015.5 |
| 20260505064609 | 53 | 105 | 5.0 | 7.0 | 0.00 | 0.00 | 0.00 | 74 | 1015.6 |
| 20260505064108 | 53 | 109 | 5.0 | 7.0 | 0.00 | 0.00 | 0.00 | 73 | 1015.4 |
| 20260505063605 | 54 | 107 | 6.0 | 6.0 | 0.00 | 0.00 | 0.00 | 68 | 1015.7 |
| 20260505063100 | 53 | 115 | 5.0 | 7.0 | 0.00 | 0.00 | 0.00 | 72 | 1015.5 |
| 20260505062557 | 54 | 107 | 5.0 | 5.0 | 0.00 | 0.00 | 0.00 | 69 | 1015.6 |
| 20260505062055 | 55 | 118 | 5.0 | 5.0 | 0.00 | 0.00 | 0.00 | 65 | 1015.5 |
| 20260505061552 | 55 | 110 | 5.0 | 5.0 | 0.00 | 0.00 | 0.00 | 68 | 1015.5 |
| 20260505061050 | 55 | 112 | 4.0 | 5.0 | 0.00 | 0.00 | 0.00 | 63 | 1015.7 |
| 20260505060547 | 55 | 115 | 4.0 | 6.0 | 0.00 | 0.00 | 0.00 | 66 | 1015.5 |
| 20260505060044 | 57 | 111 | 4.0 | 5.0 | 0.00 | 0.00 | 0.00 | 61 | 1015.5 |
| 20260505055539 | 58 | 106 | 2.0 | 3.0 | 0.00 | 0.00 | 0.00 | 56 | 1015.5 |
| 20260505055036 | 57 | 128 | 3.0 | 4.0 | 0.00 | 0.00 | 0.00 | 57 | 1015.4 |
| 20260505054533 | 57 | 99 | 4.0 | 5.0 | 0.00 | 0.00 | 0.00 | 59 | 1015.6 |
| 20260505054031 | 57 | 101 | 4.0 | 5.0 | 0.00 | 0.00 | 0.00 | 60 | 1015.7 |
| 20260505053528 | 57 | 107 | 3.0 | 4.0 | 0.00 | 0.00 | 0.00 | 59 | 1015.5 |
| 20260505053025 | 56 | 104 | 4.0 | 4.0 | 0.00 | 0.00 | 0.00 | 62 | 1015.7 |
| 20260505052522 | 56 | 107 | 5.0 | 5.0 | 0.00 | 0.00 | 0.00 | 69 | 1015.9 |
| 20260505052020 | 56 | 104 | 3.0 | 5.0 | 0.00 | 0.00 | 0.00 | 66 | 1015.7 |
| 20260505051516 | 58 | 107 | 3.0 | 5.0 | 0.00 | 0.00 | 0.00 | 59 | 1015.8 |
| 20260505051014 | 58 | 118 | 3.0 | 4.0 | 0.00 | 0.00 | 0.00 | 58 | 1015.7 |
| 20260505050512 | 58 | 102 | 3.0 | 3.0 | 0.00 | 0.00 | 0.00 | 55 | 1015.5 |
| 20260505041440 | 59 | 102 | 3.0 | 4.0 | 0.00 | 0.00 | 0.00 | 55 | 1015.5 |
| 20260505040937 | 60 | 110 | 4.0 | 5.0 | 0.00 | 0.00 | 0.00 | 55 | 1015.5 |
| 20260505040434 | 59 | 119 | 4.0 | 5.0 | 0.00 | 0.00 | 0.00 | 55 | 1015.4 |
| 20260505035931 | 58 | 116 | 3.0 | 5.0 | 0.00 | 0.00 | 0.00 | 59 | 1015.6 |
| 20260505035427 | 59 | 102 | 4.0 | 5.0 | 0.00 | 0.00 | 0.00 | 56 | 1015.5 |
| 20260505034925 | 60 | 120 | 3.0 | 5.0 | 0.00 | 0.00 | 0.00 | 53 | 1015.4 |
| 20260505034421 | 60 | 107 | 4.0 | 4.0 | 0.00 | 0.00 | 0.00 | 53 | 1015.6 |
| 20260505033918 | 60 | 127 | 2.0 | 3.0 | 0.00 | 0.00 | 0.00 | 54 | 1015.7 |
| 20260505033414 | 60 | 109 | 3.0 | 4.0 | 0.00 | 0.00 | 0.00 | 56 | 1015.6 |
| 20260505032913 | 60 | 107 | 3.0 | 5.0 | 0.00 | 0.00 | 0.00 | 53 | 1015.6 |
| 20260505032409 | 61 | 111 | 3.0 | 5.0 | 0.00 | 0.00 | 0.00 | 52 | 1015.7 |
| 20260505031906 | 61 | 95 | 3.0 | 4.0 | 0.00 | 0.00 | 0.00 | 52 | 1015.6 |
| 20260505031403 | 61 | 115 | 4.0 | 4.0 | 0.00 | 0.00 | 0.00 | 51 | 1015.7 |
| 20260505030900 | 60 | 113 | 2.0 | 3.0 | 0.00 | 0.00 | 0.00 | 52 | 1016.0 |
| 20260505030356 | 60 | 104 | 2.0 | 2.0 | 0.00 | 0.00 | 0.00 | 52 | 1016.0 |
| 20260505025851 | 62 | 141 | 2.0 | 4.0 | 0.00 | 0.00 | 0.00 | 51 | 1015.7 |
| 20260505025349 | 62 | 100 | 3.0 | 4.0 | 0.00 | 0.00 | 0.00 | 51 | 1015.8 |
| 20260505024848 | 62 | 126 | 3.0 | 4.0 | 0.00 | 0.00 | 0.00 | 51 | 1015.9 |
| 20260505024345 | 62 | 92 | 2.0 | 3.0 | 0.00 | 0.00 | 0.00 | 52 | 1015.7 |
| 20260505023842 | 62 | 116 | 3.0 | 4.0 | 0.00 | 0.00 | 0.00 | 51 | 1015.8 |
| 20260505023339 | 61 | 101 | 4.0 | 5.0 | 0.00 | 0.00 | 0.00 | 55 | 1015.6 |
| 20260505022836 | 61 | 98 | 4.0 | 6.0 | 0.00 | 0.00 | 0.00 | 56 | 1015.8 |
| 20260505022333 | 62 | 109 | 5.0 | 6.0 | 0.00 | 0.00 | 0.00 | 56 | 1015.7 |
| 20260505021831 | 62 | 123 | 3.0 | 5.0 | 0.00 | 0.00 | 0.00 | 55 | 1015.6 |
| 20260505021327 | 62 | 123 | 5.0 | 6.0 | 0.00 | 0.00 | 0.00 | 56 | 1015.5 |
| 20260505020822 | 62 | 95 | 4.0 | 5.0 | 0.00 | 0.00 | 0.00 | 54 | 1015.7 |
| 20260505020318 | 62 | 110 | 3.0 | 6.0 | 0.00 | 0.00 | 0.00 | 55 | 1015.7 |
| 20260505015815 | 62 | 127 | 5.0 | 6.0 | 0.00 | 0.00 | 0.00 | 58 | 1015.6 |
| 20260505015313 | 63 | 109 | 5.0 | 6.0 | 0.00 | 0.00 | 0.00 | 54 | 1015.5 |
| 20260505014810 | 64 | 129 | 4.0 | 5.0 | 0.00 | 0.00 | 0.00 | 54 | 1015.7 |
| 20260505014307 | 64 | 120 | 4.0 | 5.0 | 0.00 | 0.00 | 0.00 | 51 | 1015.5 |
| 20260505013803 | 64 | 106 | 4.0 | 8.0 | 0.00 | 0.00 | 0.00 | 52 | 1015.4 |
| 20260505013301 | 64 | 120 | 6.0 | 6.0 | 0.00 | 0.00 | 0.00 | 53 | 1015.3 |
| 20260505012759 | 64 | 125 | 3.0 | 5.0 | 0.00 | 0.00 | 0.00 | 53 | 1015.4 |
| 20260505012256 | 64 | 111 | 4.0 | 6.0 | 0.00 | 0.00 | 0.00 | 53 | 1015.4 |
| 20260505011751 | 64 | 115 | 4.0 | 5.0 | 0.00 | 0.00 | 0.00 | 54 | 1015.3 |
| 20260505011249 | 64 | 123 | 4.0 | 4.0 | 0.00 | 0.00 | 0.00 | 56 | 1015.2 |
| 20260505010744 | 64 | 113 | 3.0 | 5.0 | 0.00 | 0.00 | 0.00 | 56 | 1015.2 |
| 20260505010241 | 64 | 127 | 3.0 | 5.0 | 0.00 | 0.00 | 0.00 | 56 | 1015.2 |
| 20260505005737 | 64 | 113 | 3.0 | 5.0 | 0.00 | 0.00 | 0.00 | 55 | 1015.2 |
| 20260505005234 | 64 | 119 | 4.0 | 5.0 | 0.00 | 0.00 | 0.00 | 58 | 1014.8 |
| 20260505004731 | 64 | 115 | 4.0 | 5.0 | 0.00 | 0.00 | 0.00 | 56 | 1015.0 |
| 20260505004228 | 65 | 112 | 4.0 | 5.0 | 0.00 | 0.00 | 0.00 | 55 | 1015.0 |
| 20260505003725 | 65 | 115 | 5.0 | 5.0 | 0.00 | 0.00 | 0.00 | 53 | 1014.8 |
| 20260505003223 | 66 | 127 | 4.0 | 5.0 | 0.00 | 0.00 | 0.00 | 54 | 1014.8 |
| 20260505002719 | 66 | 123 | 5.0 | 5.0 | 0.00 | 0.00 | 0.00 | 54 | 1014.9 |
| 20260505002216 | 66 | 128 | 4.0 | 5.0 | 0.00 | 0.00 | 0.00 | 52 | 1014.7 |
| 20260505001714 | 67 | 112 | 3.0 | 5.0 | 0.00 | 0.00 | 0.00 | 51 | 1014.6 |
| 20260505001211 | 68 | 116 | 3.0 | 5.0 | 0.00 | 0.00 | 0.00 | 49 | 1014.7 |
| 20260505000708 | 68 | 125 | 4.0 | 4.0 | 0.00 | 0.00 | 0.00 | 48 | 1015.0 |
| 20260505000206 | 69 | 137 | 2.0 | 3.0 | 0.00 | 0.00 | 0.00 | 47 | 1015.0 |
| 20260504235702 | 70 | 132 | 1.0 | 3.0 | 0.00 | 0.00 | 0.00 | 46 | 1014.6 |
| 20260504235158 | 71 | 157 | 1.0 | 5.0 | 0.00 | 0.00 | 0.00 | 45 | 1014.6 |
| 20260504234656 | 71 | 148 | 2.0 | 3.0 | 0.00 | 0.00 | 0.00 | 44 | 1014.7 |
| 20260504234153 | 72 | 119 | 3.0 | 3.0 | 0.00 | 0.00 | 0.00 | 43 | 1014.5 |
| 20260504233649 | 73 | 140 | 2.0 | 4.0 | 0.00 | 0.00 | 0.00 | 43 | 1014.6 |
| 20260504233145 | 74 | 149 | 2.0 | 4.0 | 0.00 | 0.00 | 0.00 | 42 | 1014.5 |
| 20260504232643 | 74 | 60 | 1.0 | 4.0 | 0.00 | 0.00 | 0.00 | 40 | 1014.5 |
| 20260504232139 | 76 | 114 | 0.0 | 3.0 | 0.00 | 0.00 | 0.00 | 40 | 1014.3 |
| 20260504231636 | 75 | 56 | 1.0 | 4.0 | 0.00 | 0.00 | 0.00 | 40 | 1014.1 |
| 20260504231132 | 75 | 244 | 5.0 | 10.0 | 0.00 | 0.00 | 0.00 | 41 | 1014.5 |
| 20260504230629 | 75 | 253 | 4.0 | 7.0 | 0.00 | 0.00 | 0.00 | 39 | 1014.4 |
| 20260504230128 | 75 | 205 | 0.0 | 5.0 | 0.00 | 0.00 | 0.00 | 40 | 1014.2 |
| 20260504225625 | 76 | 153 | 0.0 | 5.0 | 0.00 | 0.00 | 0.00 | 39 | 1014.4 |
| 20260504225121 | 77 | 257 | 8.0 | 8.0 | 0.00 | 0.00 | 0.00 | 37 | 1014.3 |
| 20260504224618 | 77 | 197 | 3.0 | 3.0 | 0.00 | 0.00 | 0.00 | 40 | 1014.2 |
| 20260504224115 | 76 | 259 | 5.0 | 7.0 | 0.00 | 0.00 | 0.00 | 37 | 1014.1 |
| 20260504223612 | 76 | 272 | 4.0 | 10.0 | 0.00 | 0.00 | 0.00 | 39 | 1014.1 |
| 20260504223108 | 77 | 217 | 3.0 | 5.0 | 0.00 | 0.00 | 0.00 | 39 | 1014.2 |
| 20260504222605 | 77 | 266 | 0.0 | 6.0 | 0.00 | 0.00 | 0.00 | 37 | 1014.1 |
| 20260504222102 | 77 | 188 | 1.0 | 5.0 | 0.00 | 0.00 | 0.00 | 38 | 1014.2 |
| 20260504221559 | 78 | 227 | 2.0 | 6.0 | 0.00 | 0.00 | 0.00 | 39 | 1014.4 |
| 20260504221056 | 78 | 130 | 2.0 | 5.0 | 0.00 | 0.00 | 0.00 | 38 | 1014.1 |
| 20260504220552 | 78 | 292 | 2.0 | 6.0 | 0.00 | 0.00 | 0.00 | 37 | 1014.2 |
| 20260504220049 | 77 | 290 | 3.0 | 8.0 | 0.00 | 0.00 | 0.00 | 39 | 1014.2 |
| 20260504215546 | 77 | 248 | 7.0 | 11.0 | 0.00 | 0.00 | 0.00 | 38 | 1014.0 |
| 20260504215044 | 77 | 218 | 4.0 | 11.0 | 0.00 | 0.00 | 0.00 | 39 | 1014.1 |
| 20260504214539 | 78 | 221 | 3.0 | 7.0 | 0.00 | 0.00 | 0.00 | 40 | 1014.2 |
| 20260504214036 | 78 | 104 | 2.0 | 5.0 | 0.00 | 0.00 | 0.00 | 38 | 1014.1 |
| 20260504213532 | 78 | 341 | 2.0 | 4.0 | 0.00 | 0.00 | 0.00 | 39 | 1014.3 |
| 20260504213030 | 76 | 211 | 4.0 | 11.0 | 0.00 | 0.00 | 0.00 | 38 | 1014.2 |
| 20260504212525 | 76 | 240 | 6.0 | 17.0 | 0.00 | 0.00 | 0.00 | 37 | 1014.0 |
| 20260504212023 | 77 | 216 | 9.0 | 11.0 | 0.00 | 0.00 | 0.00 | 38 | 1014.4 |
| 20260504211520 | 76 | 247 | 6.0 | 11.0 | 0.00 | 0.00 | 0.00 | 39 | 1014.1 |
| 20260504211017 | 77 | 220 | 5.0 | 10.0 | 0.00 | 0.00 | 0.00 | 39 | 1014.3 |
| 20260504210514 | 77 | 286 | 8.0 | 11.0 | 0.00 | 0.00 | 0.00 | 37 | 1014.2 |
| 20260504210011 | 77 | 230 | 3.0 | 7.0 | 0.00 | 0.00 | 0.00 | 40 | 1014.1 |
| 20260504205508 | 78 | 240 | 8.0 | 11.0 | 0.00 | 0.00 | 0.00 | 39 | 1014.2 |
| 20260504205006 | 78 | 313 | 0.0 | 6.0 | 0.00 | 0.00 | 0.00 | 38 | 1014.1 |
| 20260504204504 | 78 | 284 | 7.0 | 9.0 | 0.00 | 0.00 | 0.00 | 41 | 1014.3 |
| 20260504204003 | 78 | 235 | 3.0 | 5.0 | 0.00 | 0.00 | 0.00 | 42 | 1014.2 |
| 20260504203500 | 77 | 282 | 9.0 | 9.0 | 0.00 | 0.00 | 0.00 | 39 | 1014.4 |
| 20260504202956 | 76 | 249 | 9.0 | 14.0 | 0.00 | 0.00 | 0.00 | 40 | 1014.5 |
| 20260504202453 | 76 | 242 | 4.0 | 9.0 | 0.00 | 0.00 | 0.00 | 42 | 1014.3 |
| 20260504201950 | 75 | 246 | 5.0 | 11.0 | 0.00 | 0.00 | 0.00 | 40 | 1014.6 |
| 20260504201447 | 77 | 237 | 10.0 | 11.0 | 0.00 | 0.00 | 0.00 | 39 | 1014.6 |
| 20260504200944 | 75 | 264 | 9.0 | 10.0 | 0.00 | 0.00 | 0.00 | 42 | 1014.7 |
| 20260504200441 | 75 | 303 | 4.0 | 6.0 | 0.00 | 0.00 | 0.00 | 41 | 1014.5 |
| 20260504195938 | 76 | 227 | 2.0 | 9.0 | 0.00 | 0.00 | 0.00 | 43 | 1014.8 |
| 20260504195433 | 75 | 218 | 8.0 | 10.0 | 0.00 | 0.00 | 0.00 | 40 | 1014.8 |
| 20260504194930 | 74 | 236 | 5.0 | 12.0 | 0.00 | 0.00 | 0.00 | 42 | 1014.7 |
| 20260504194426 | 74 | 236 | 5.0 | 9.0 | 0.00 | 0.00 | 0.00 | 42 | 1014.9 |
| 20260504193922 | 74 | 231 | 6.0 | 12.0 | 0.00 | 0.00 | 0.00 | 43 | 1014.9 |
| 20260504193420 | 75 | 258 | 9.0 | 12.0 | 0.00 | 0.00 | 0.00 | 41 | 1015.1 |
| 20260504192918 | 73 | 264 | 5.0 | 9.0 | 0.00 | 0.00 | 0.00 | 43 | 1015.0 |
| 20260504192415 | 74 | 269 | 5.0 | 13.0 | 0.00 | 0.00 | 0.00 | 43 | 1015.3 |
| 20260504191914 | 73 | 186 | 3.0 | 10.0 | 0.00 | 0.00 | 0.00 | 43 | 1015.2 |
| 20260504191412 | 75 | 216 | 2.0 | 6.0 | 0.00 | 0.00 | 0.00 | 44 | 1015.3 |
| 20260504190907 | 75 | 246 | 3.0 | 7.0 | 0.00 | 0.00 | 0.00 | 44 | 1015.5 |
| 20260504190403 | 74 | 250 | 8.0 | 10.0 | 0.00 | 0.00 | 0.00 | 45 | 1015.6 |
| 20260504185900 | 73 | 296 | 2.0 | 7.0 | 0.00 | 0.00 | 0.00 | 42 | 1015.4 |
| 20260504185357 | 74 | 298 | 5.0 | 9.0 | 0.00 | 0.00 | 0.00 | 45 | 1015.7 |
| 20260504184853 | 72 | 350 | 3.0 | 9.0 | 0.00 | 0.00 | 0.00 | 42 | 1015.8 |
| 20260504184349 | 73 | 235 | 5.0 | 14.0 | 0.00 | 0.00 | 0.00 | 43 | 1015.9 |
| 20260504183845 | 73 | 258 | 5.0 | 11.0 | 0.00 | 0.00 | 0.00 | 43 | 1015.9 |
| 20260504183343 | 73 | 245 | 4.0 | 9.0 | 0.00 | 0.00 | 0.00 | 45 | 1015.7 |
| 20260504182840 | 73 | 260 | 2.0 | 6.0 | 0.00 | 0.00 | 0.00 | 45 | 1015.8 |
| 20260504182337 | 72 | 282 | 3.0 | 6.0 | 0.00 | 0.00 | 0.00 | 45 | 1016.0 |
| 20260504181833 | 73 | 214 | 11.0 | 14.0 | 0.00 | 0.00 | 0.00 | 42 | 1016.4 |
| 20260504181331 | 73 | 225 | 12.0 | 14.0 | 0.00 | 0.00 | 0.00 | 43 | 1016.2 |
| 20260504180830 | 71 | 300 | 5.0 | 14.0 | 0.00 | 0.00 | 0.00 | 48 | 1016.0 |
| 20260504180328 | 72 | 256 | 4.0 | 8.0 | 0.00 | 0.00 | 0.00 | 43 | 1016.5 |
| 20260504175826 | 73 | 236 | 7.0 | 9.0 | 0.00 | 0.00 | 0.00 | 45 | 1016.4 |
| 20260504175322 | 71 | 320 | 5.0 | 7.0 | 0.00 | 0.00 | 0.00 | 45 | 1016.6 |
| 20260504174821 | 70 | 244 | 8.0 | 14.0 | 0.00 | 0.00 | 0.00 | 44 | 1016.6 |
| 20260504174318 | 71 | 205 | 2.0 | 5.0 | 0.00 | 0.00 | 0.00 | 44 | 1016.8 |
| 20260504173815 | 71 | 185 | 5.0 | 7.0 | 0.00 | 0.00 | 0.00 | 45 | 1016.5 |
| 20260504173311 | 70 | 260 | 4.0 | 9.0 | 0.00 | 0.00 | 0.00 | 45 | 1016.7 |
| 20260504172808 | 70 | 289 | 6.0 | 7.0 | 0.00 | 0.00 | 0.00 | 44 | 1016.7 |
| 20260504172305 | 69 | 276 | 2.0 | 5.0 | 0.00 | 0.00 | 0.00 | 49 | 1016.7 |
| 20260504171800 | 69 | 269 | 7.0 | 8.0 | 0.00 | 0.00 | 0.00 | 47 | 1016.9 |
| 20260504171258 | 69 | 250 | 6.0 | 13.0 | 0.00 | 0.00 | 0.00 | 47 | 1016.8 |
| 20260504170755 | 68 | 284 | 9.0 | 12.0 | 0.00 | 0.00 | 0.00 | 47 | 1017.0 |
| 20260504170252 | 69 | 225 | 7.0 | 9.0 | 0.00 | 0.00 | 0.00 | 47 | 1017.0 |
| 20260504160210 | 65 | 256 | 3.0 | 9.0 | 0.00 | 0.00 | 0.00 | 48 | 1017.7 |
| 20260504151139 | 63 | 232 | 2.0 | 6.0 | 0.00 | 0.00 | 0.00 | 49 | 1018.0 |
| 20260504150636 | 64 | 266 | 5.0 | 11.0 | 0.00 | 0.00 | 0.00 | 47 | 1018.3 |
| 20260504150133 | 65 | 205 | 7.0 | 9.0 | 0.00 | 0.00 | 0.00 | 43 | 1018.5 |
| 20260504141101 | 61 | 255 | 3.0 | 6.0 | 0.00 | 0.00 | 0.00 | 45 | 1018.5 |
| 20260504140558 | 62 | 164 | 3.0 | 3.0 | 0.00 | 0.00 | 0.00 | 46 | 1018.3 |
| 20260504130522 | 58 | 217 | 0.0 | 2.0 | 0.00 | 0.00 | 0.00 | 57 | 1018.2 |
| 20260504110410 | 40 | 120 | 4.0 | 4.0 | 0.00 | 0.00 | 0.00 | 90 | 1017.9 |